Hourly Data Report for October 07, 2004

SHERBROOKE A
QUEBEC

45°26'00.000" N
71°41'00.000" W
241.40 m
7028124
71610
YSC

Download Data

Hourly Data (October 2004)
Hourly Data Report for October 7, 2004
TIME
LST
Temp Definition
°C
Dew Point Definition
°C
Rel Hum Definition
%
Precip. Amount Definition
mm

Wind Dir Definition
10's deg

Wind Spd Definition
km/h
Visibility Definition
km
Stn Press Definition
kPa
Hmdx Definition


Wind Chill Definition


Weather Definition


00:00 7.8 5.2 84     0 15.0 99.58      
01:00 9.1 5.1 76   21 4 15.0 99.59      
02:00 6.8 5.0 88     0 15.0 99.57      
03:00 5.9 4.6 91     0 15.0 99.57      
04:00 5.9 4.6 91     0 15.0 99.60      
05:00 4.8 3.6 92     0 15.0 99.66      
06:00 4.2 3.4 95     0 9.7 99.71      
07:00 4.9 3.8 93     0 24.1 99.81     Mainly Clear
08:00 9.2 6.8 85     0 24.1 99.86     Mainly Clear
09:00 12.8 7.3 69   25 6 24.1 99.90     Mainly Clear
10:00 14.9 8.9 67   27 9 24.1 99.86     Mainly Clear
11:00 16.1 8.9 62   26 9 24.1 99.83     Mainly Clear
12:00 17.5 9.1 58   27 11 24.1 99.76     Mainly Clear
13:00 19.1 9.6 54   20 11 24.1 99.71     Mainly Clear
14:00 19.5 9.8 53   25 13 24.1 99.70     Mainly Clear
15:00 19.8 9.0 50   23 15 24.1 99.67     Clear
16:00 19.4 9.0 51   21 11 24.1 99.66     Clear
17:00 17.6 9.6 59   24 6 15.0 99.70      
18:00 10.9 8.0 82   21 6 15.0 99.72      
19:00 10.2 8.6 90     0 15.0 99.74      
20:00 7.6 6.6 93   12 6 15.0 99.76      
21:00 7.5 6.8 95   9 4 4.8 99.79      
22:00 6.3 5.6 95     0 11.3 99.81      
23:00 6.0 5.1 94   8 4 15.0 99.81      

Notes on Data Quality.

Legend

  • E = Estimated
  • M = Missing
  • NA = Not Available*
  • [empty] = Indicates an unobserved value
Date modified: